RH
60 60 60 60 60 59 57 55 54 54 55 56 58 60 62 63 63 63 64 64 64 64 64 64 64 65 65 65 66 66 66 67 67 66 66 65 64 64 65 66 66 67
63 63 63 64 65 67 68 66 63 60 57 55 55 56 57 58 59 60 61 61 62 63 64 65 65 65 65 65 65 66 66 66 67 67 66 65 65 64 64 65 66 66
54 62 67 70 71 73 74 75 75 73 69 66 62 60 59 59 60 60 60 60 60 61 62 64 65 65 66 66 66 66 66 66 66 67 68 67 67 66 65 65 65 64
33 42 53 64 72 77 80 81 82 82 81 79 76 72 70 67 66 65 63 62 61 61 61 63 65 66 67 68 68 68 68 68 68 69 69 69 69 69 69 69 67 67
22 25 30 37 48 61 72 79 82 84 85 86 85 84 82 80 78 76 73 71 69 67 66 65 65 66 68 69 70 71 71 71 70 71 71 71 72 72 73 73 72 72
25 24 24 25 27 34 45 59 69 74 79 83 85 87 87 87 86 85 84 83 82 80 79 76 74 72 72 73 73 74 75 75 74 74 74 73 74 74 75 76 76 77
34 30 28 28 27 26 29 37 47 55 63 70 76 82 85 87 89 89 89 89 88 88 88 87 86 84 83 82 81 80 80 80 80 80 79 78 78 78 78 78 79 80
41 39 35 32 31 30 28 29 32 37 44 51 57 64 72 79 84 87 90 90 90 91 92 92 92 92 91 90 89 88 88 87 87 87 86 85 85 84 84 85 85 85
42 44 43 39 36 35 33 31 30 30 32 36 40 44 49 56 64 72 80 86 89 92 93 94 94 94 94 94 94 94 94 93 93 93 93 93 92 92 92 93 92 91
45 45 46 45 42 40 39 37 35 33 32 31 32 34 35 37 41 46 53 62 71 79 85 89 93 94 95 95 95 96 96 96 96 97 97 97 97 96 96 97 97 95
50 50 50 50 48 47 46 44 41 40 38 35 34 34 34 35 35 35 36 39 44 50 58 65 72 79 85 90 93 94 96 96 96 97 98 99 100 99 99 99 99 98
57 56 56 57 56 53 53 51 49 47 45 43 39 37 37 37 38 38 38 37 37 38 40 43 48 53 59 66 74 80 86 90 93 94 95 96 98 99 100 99 100 100
63 62 62 63 62 60 59 58 56 55 52 50 47 44 42 41 41 42 42 43 42 42 42 42 43 45 48 51 54 58 64 71 78 84 90 93 96 97 97 97 98 98
68 68 68 68 66 65 65 64 63 62 59 56 54 51 48 46 45 45 46 47 47 47 47 47 47 48 50 50 51 52 55 57 61 66 72 79 86 91 93 94 94 95
69 71 72 73 72 69 70 69 67 66 62 59 57 55 53 52 51 50 50 50 51 52 52 52 52 52 53 52 53 56 57 57 57 57 58 61 66 72 77 82 86 87
68 71 74 76 77 77 76 75 71 67 63 59 58 57 56 55 55 54 54 54 54 55 55 56 56 56 55 55 56 57 58 58 57 57 57 56 56 57 60 64 69 74
66 70 74 76 78 81 81 79 76 70 64 60 57 56 57 56 56 55 55 55 55 55 55 56 57 57 57 57 58 59 59 57 56 56 56 56 56 57 57 58 60 61
65 70 73 74 77 81 82 82 79 73 67 63 60 58 58 58 58 57 57 56 56 55 54 54 55 57 59 59 59 60 60 58 57 56 56 57 58 60 62 62 61 60
65 70 73 74 76 80 82 83 81 76 71 68 67 66 65 64 63 61 60 60 58 56 54 53 52 53 55 58 60 63 63 60 57 57 58 61 63 64 64 63 63 63
66 69 73 75 77 79 81 83 83 79 76 76 76 76 73 71 68 66 64 63 62 61 58 56 54 52 52 53 57 64 67 64 61 63 65 66 65 63 61 61 62 63
71 72 76 77 79 81 83 85 86 85 84 84 84 82 79 75 72 70 68 66 66 66 65 63 60 57 56 54 54 60 65 64 62 63 65 64 61 57 56 58 60 60
77 77 79 80 80 83 87 89 90 90 88 86 86 85 83 79 76 74 72 71 71 71 71 70 68 64 62 60 57 60 65 63 58 59 61 59 58 60 63 64 63 63
80 81 82 82 82 85 89 93 93 91 88 86 86 87 86 84 81 78 77 77 77 77 77 75 72 67 64 62 60 63 66 63 58 60 62 58 59 67 72 70 68 70
82 84 83 83 85 87 90 93 93 91 87 86 87 87 88 87 84 82 82 82 82 82 80 76 72 68 65 64 62 62 64 64 61 62 63 61 65 74 79 77 78 80
86 86 85 86 88 89 92 94 93 90 88 88 88 87 87 88 88 87 87 88 87 85 80 74 69 66 64 64 63 62 64 66 65 66 69 71 75 82 84 84 84 83
89 90 89 89 91 93 95 95 92 90 90 90 88 88 88 89 90 90 90 90 88 82 76 70 67 67 67 68 67 66 66 67 68 71 76 80 82 84 83 82 81 79